Time,TemperatureF,DewpointF,PressureIn,WindDirection,WindDirectionDegrees,WindSpeedMPH,WindSpeedGustMPH,Humidity,HourlyPrecipIn,Conditions,Clouds,dailyrainin,SoftwareType,DateUTC
2013-04-15 00:00:00,64.4,64.4,30.05,East,100,3.5,3.5,100,0.00,-RA,,0.00,WeatherDisplay:10.37,2013-04-15 04:00:00,
2013-04-15 00:05:00,64.4,64.4,30.03,ESE,110,4.6,4.6,100,0.00,OVC,,0.00,WeatherDisplay:10.37,2013-04-15 04:05:00,
2013-04-15 00:10:00,64.4,64.4,30.03,ESE,110,4.6,4.6,100,0.00,OVC,,0.00,WeatherDisplay:10.37,2013-04-15 04:10:00,
2013-04-15 00:15:00,64.4,64.4,30.03,ESE,110,4.6,4.6,100,0.00,OVC,,0.00,WeatherDisplay:10.37,2013-04-15 04:15:00,
2013-04-15 00:20:00,64.4,64.4,30.03,ESE,110,4.6,4.6,100,0.00,OVC,,0.00,WeatherDisplay:10.37,2013-04-15 04:20:00,
2013-04-15 00:25:00,62.6,62.6,30.02,East,80,4.6,4.6,100,0.00,OVC,,0.00,WeatherDisplay:10.37,2013-04-15 04:25:00,
2013-04-15 00:30:00,62.6,62.6,30.02,East,80,4.6,4.6,100,0.00,OVC,,0.00,WeatherDisplay:10.37,2013-04-15 04:30:00,
2013-04-15 00:35:00,62.6,62.6,30.02,East,80,4.6,4.6,100,0.00,OVC,,0.00,WeatherDisplay:10.37,2013-04-15 04:35:00,
2013-04-15 00:40:00,62.6,62.6,30.02,East,80,4.6,4.6,100,0.00,OVC,,0.00,WeatherDisplay:10.37,2013-04-15 04:40:00,
2013-04-15 00:45:00,64.4,64.4,30.02,ESE,120,3.5,3.5,100,0.00,OVC,,0.00,WeatherDisplay:10.37,2013-04-15 04:45:00,
2013-04-15 00:50:00,64.4,64.4,30.02,ESE,120,3.5,3.5,100,0.00,OVC,,0.00,WeatherDisplay:10.37,2013-04-15 04:50:00,
2013-04-15 00:55:00,64.4,64.4,30.02,ESE,120,3.5,3.5,100,0.00,OVC,,0.00,WeatherDisplay:10.37,2013-04-15 04:55:00,
2013-04-15 01:00:00,64.4,64.4,30.02,ESE,120,3.5,3.5,100,0.00,OVC,,0.00,WeatherDisplay:10.37,2013-04-15 05:00:00,
2013-04-15 01:05:00,64.4,64.4,30.02,ESE,110,8.1,8.1,100,0.00,OVC,,0.00,WeatherDisplay:10.37,2013-04-15 05:05:00,
2013-04-15 01:10:00,64.4,64.4,30.02,ESE,110,8.1,8.1,100,0.00,OVC,,0.00,WeatherDisplay:10.37,2013-04-15 05:10:00,
2013-04-15 01:15:00,64.4,64.4,30.02,ESE,110,8.1,8.1,100,0.00,OVC,,0.00,WeatherDisplay:10.37,2013-04-15 05:15:00,
2013-04-15 01:20:00,64.4,64.4,30.02,ESE,110,8.1,8.1,100,0.00,OVC,,0.00,WeatherDisplay:10.37,2013-04-15 05:20:00,
2013-04-15 01:25:00,62.6,62.6,29.99,ESE,110,11.5,11.5,100,0.00,OVC,,0.00,WeatherDisplay:10.37,2013-04-15 05:25:00,
2013-04-15 01:30:00,62.6,62.6,29.99,ESE,110,11.5,11.5,100,0.00,OVC,,0.00,WeatherDisplay:10.37,2013-04-15 05:30:00,
2013-04-15 01:35:00,62.6,62.6,29.99,ESE,110,11.5,11.5,100,0.00,OVC,,0.00,WeatherDisplay:10.37,2013-04-15 05:35:00,
2013-04-15 01:40:00,62.6,62.6,29.99,ESE,110,11.5,11.5,100,0.00,OVC,,0.00,WeatherDisplay:10.37,2013-04-15 05:40:00,
2013-04-15 01:45:00,64.4,64.4,29.99,East,100,11.5,11.5,100,0.00,-RA,,0.00,WeatherDisplay:10.37,2013-04-15 05:45:00,
2013-04-15 01:50:00,64.4,64.4,29.99,East,100,11.5,11.5,100,0.00,-RA,,0.00,WeatherDisplay:10.37,2013-04-15 05:50:00,
2013-04-15 01:55:00,64.4,64.4,29.99,East,100,11.5,11.5,100,0.00,-RA,,0.00,WeatherDisplay:10.37,2013-04-15 05:55:00,
2013-04-15 02:00:00,64.4,64.4,29.99,East,100,11.5,11.5,100,0.00,-RA,,0.00,WeatherDisplay:10.37,2013-04-15 06:00:00,
2013-04-15 02:05:00,64.4,64.4,30.00,East,100,18.4,18.4,100,0.00,OVC,,0.00,WeatherDisplay:10.37,2013-04-15 06:05:00,
2013-04-15 02:10:00,64.4,64.4,30.00,East,100,18.4,18.4,100,0.00,OVC,,0.00,WeatherDisplay:10.37,2013-04-15 06:10:00,
2013-04-15 02:15:00,64.4,64.4,30.00,East,100,18.4,18.4,100,0.00,OVC,,0.00,WeatherDisplay:10.37,2013-04-15 06:15:00,
2013-04-15 02:20:00,64.4,64.4,30.00,East,100,18.4,18.4,100,0.00,OVC,,0.00,WeatherDisplay:10.37,2013-04-15 06:20:00,
2013-04-15 02:25:00,62.6,62.6,29.99,East,100,9.2,9.2,100,0.00,OVC,,0.00,WeatherDisplay:10.37,2013-04-15 06:25:00,
2013-04-15 02:30:00,62.6,62.6,29.99,East,100,9.2,9.2,100,0.00,OVC,,0.00,WeatherDisplay:10.37,2013-04-15 06:30:00,
2013-04-15 02:35:00,62.6,62.6,29.99,East,100,9.2,9.2,100,0.00,OVC,,0.00,WeatherDisplay:10.37,2013-04-15 06:35:00,
2013-04-15 02:40:00,62.6,62.6,29.99,East,100,9.2,9.2,100,0.00,OVC,,0.00,WeatherDisplay:10.37,2013-04-15 06:40:00,
2013-04-15 02:45:00,62.6,62.6,29.94,ESE,110,18.4,18.4,100,0.00,OVC,,0.00,WeatherDisplay:10.37,2013-04-15 06:45:00,
2013-04-15 02:50:00,62.6,62.6,29.94,ESE,110,18.4,18.4,100,0.00,OVC,,0.00,WeatherDisplay:10.37,2013-04-15 06:50:00,
2013-04-15 02:55:00,62.6,62.6,29.94,ESE,110,18.4,18.4,100,0.00,OVC,,0.00,WeatherDisplay:10.37,2013-04-15 06:55:00,
2013-04-15 03:00:00,62.6,62.6,29.94,ESE,110,18.4,18.4,100,0.00,OVC,,0.00,WeatherDisplay:10.37,2013-04-15 07:00:00,
2013-04-15 03:05:00,62.6,62.6,29.92,ESE,120,35.7,35.7,100,0.00,OVC,,0.00,WeatherDisplay:10.37,2013-04-15 07:05:00,
2013-04-15 03:41:00,62.6,62.6,29.92,ESE,120,46.0,46.0,100,0.00,OVC,,0.00,WeatherDisplay:10.37,2013-04-15 07:41:00,
2013-04-15 03:42:00,62.6,62.6,29.92,ESE,120,46.0,46.0,100,0.00,OVC,,0.00,WeatherDisplay:10.37,2013-04-15 07:42:00,
2013-04-15 03:47:00,62.6,62.6,29.92,ESE,120,33.4,33.4,100,0.00,OVC,,0.00,WeatherDisplay:10.37,2013-04-15 07:47:00,
2013-04-15 03:48:00,62.6,62.6,29.92,ESE,120,33.4,33.4,100,0.00,OVC,,0.00,WeatherDisplay:10.37,2013-04-15 07:48:00,
2013-04-15 03:50:00,62.6,62.6,29.92,ESE,120,33.4,33.4,100,0.00,OVC,,0.00,WeatherDisplay:10.37,2013-04-15 07:50:00,
2013-04-15 03:55:00,62.6,62.6,29.92,ESE,120,33.4,33.4,100,0.00,OVC,,0.00,WeatherDisplay:10.37,2013-04-15 07:55:00,
2013-04-15 04:00:00,62.6,62.6,29.94,ESE,120,33.4,33.4,100,0.00,OVC,,0.00,WeatherDisplay:10.37,2013-04-15 08:00:00,
2013-04-15 04:05:00,62.6,62.6,29.94,ESE,120,32.2,32.2,100,0.00,OVC,,0.00,WeatherDisplay:10.37,2013-04-15 08:05:00,
2013-04-15 04:10:00,62.6,62.6,29.94,ESE,120,32.2,32.2,100,0.00,OVC,,0.00,WeatherDisplay:10.37,2013-04-15 08:10:00,
2013-04-15 04:15:00,62.6,62.6,29.94,ESE,120,32.2,32.2,100,0.00,OVC,,0.00,WeatherDisplay:10.37,2013-04-15 08:15:00,
2013-04-15 04:21:00,62.6,62.6,29.93,ESE,110,32.2,32.2,100,0.00,-RA,,0.00,WeatherDisplay:10.37,2013-04-15 08:21:00,
2013-04-15 04:26:00,62.6,62.6,29.93,ESE,110,28.8,28.8,100,0.00,-RA,,0.00,WeatherDisplay:10.37,2013-04-15 08:26:00,
2013-04-15 04:32:00,62.6,62.6,29.93,ESE,110,28.8,28.8,100,0.00,-RA,,0.00,WeatherDisplay:10.37,2013-04-15 08:32:00,
2013-04-15 04:36:00,62.6,62.6,29.93,ESE,110,28.8,28.8,100,0.00,-RA,,0.00,WeatherDisplay:10.37,2013-04-15 08:36:00,
2013-04-15 04:40:00,62.6,62.6,29.93,ESE,110,28.8,28.8,100,0.00,-RA,,0.00,WeatherDisplay:10.37,2013-04-15 08:40:00,
2013-04-15 04:45:00,62.6,62.6,29.94,ESE,110,26.5,26.5,100,0.00,-RA,,0.00,WeatherDisplay:10.37,2013-04-15 08:45:00,
2013-04-15 04:50:00,62.6,62.6,29.94,ESE,110,26.5,26.5,100,0.00,-RA,,0.00,WeatherDisplay:10.37,2013-04-15 08:50:00,
2013-04-15 04:55:00,62.6,62.6,29.94,ESE,110,26.5,26.5,100,0.00,-RA,,0.00,WeatherDisplay:10.37,2013-04-15 08:55:00,
2013-04-15 05:00:00,62.6,62.6,29.94,ESE,110,26.5,26.5,100,0.00,-RA,,0.00,WeatherDisplay:10.37,2013-04-15 09:00:00,
2013-04-15 05:05:00,62.6,62.6,29.94,ESE,110,26.5,26.5,100,0.00,-RA,,0.00,WeatherDisplay:10.37,2013-04-15 09:05:00,
2013-04-15 05:10:00,62.6,62.6,29.94,ESE,110,26.5,26.5,100,0.00,-RA,,0.00,WeatherDisplay:10.37,2013-04-15 09:10:00,
2013-04-15 05:15:00,62.6,62.6,29.93,East,90,19.6,19.6,100,0.00,-RA,,0.00,WeatherDisplay:10.37,2013-04-15 09:15:00,
2013-04-15 05:20:00,62.6,62.6,29.93,East,90,19.6,19.6,100,0.00,-RA,,0.00,WeatherDisplay:10.37,2013-04-15 09:20:00,
2013-04-15 05:25:00,62.6,62.6,29.92,East,90,19.6,19.6,100,0.00,OVC,,0.00,WeatherDisplay:10.37,2013-04-15 09:25:00,
2013-04-15 05:30:00,62.6,62.6,29.92,East,90,19.6,19.6,100,0.00,OVC,,0.00,WeatherDisplay:10.37,2013-04-15 09:30:00,
2013-04-15 05:35:00,62.6,62.6,29.92,East,90,19.6,19.6,100,0.00,OVC,,0.00,WeatherDisplay:10.37,2013-04-15 09:35:00,
2013-04-15 05:40:00,62.6,62.6,29.92,East,90,19.6,19.6,100,0.00,OVC,,0.00,WeatherDisplay:10.37,2013-04-15 09:40:00,
2013-04-15 05:45:00,62.6,62.6,29.92,East,90,11.5,11.5,100,0.00,-DZ,,0.00,WeatherDisplay:10.37,2013-04-15 09:45:00,
2013-04-15 05:50:00,62.6,62.6,29.92,East,90,11.5,11.5,100,0.00,-DZ,,0.00,WeatherDisplay:10.37,2013-04-15 09:50:00,
2013-04-15 05:55:00,62.6,62.6,29.92,East,90,11.5,11.5,100,0.00,-DZ,,0.00,WeatherDisplay:10.37,2013-04-15 09:55:00,
2013-04-15 06:00:00,62.6,62.6,29.92,East,90,11.5,11.5,100,0.00,-DZ,,0.00,WeatherDisplay:10.37,2013-04-15 10:00:00,
2013-04-15 06:05:00,60.8,60.8,29.92,East,100,9.2,9.2,100,0.00,OVC,,0.00,WeatherDisplay:10.37,2013-04-15 10:05:00,
2013-04-15 06:10:00,60.8,60.8,29.92,East,100,9.2,9.2,100,0.00,OVC,,0.00,WeatherDisplay:10.37,2013-04-15 10:10:00,
2013-04-15 06:15:00,60.8,60.8,29.92,East,100,9.2,9.2,100,0.00,OVC,,0.00,WeatherDisplay:10.37,2013-04-15 10:15:00,
2013-04-15 06:20:00,60.8,60.8,29.92,East,100,9.2,9.2,100,0.00,OVC,,0.00,WeatherDisplay:10.37,2013-04-15 10:20:00,
2013-04-15 06:25:00,60.8,60.8,29.92,East,100,10.4,10.4,100,0.00,OVC,,0.00,WeatherDisplay:10.37,2013-04-15 10:25:00,
2013-04-15 06:30:00,60.8,60.8,29.92,East,100,10.4,10.4,100,0.00,OVC,,0.00,WeatherDisplay:10.37,2013-04-15 10:30:00,
2013-04-15 06:35:00,60.8,60.8,29.92,East,100,10.4,10.4,100,0.00,OVC,,0.00,WeatherDisplay:10.37,2013-04-15 10:35:00,
2013-04-15 06:40:00,60.8,60.8,29.92,East,100,10.4,10.4,100,0.00,OVC,,0.00,WeatherDisplay:10.37,2013-04-15 10:40:00,
2013-04-15 06:45:00,60.8,60.8,29.93,ENE,70,5.8,5.8,100,0.00,OVC,,0.00,WeatherDisplay:10.37,2013-04-15 10:45:00,
2013-04-15 06:50:00,60.8,60.8,29.93,ENE,70,5.8,5.8,100,0.00,OVC,,0.00,WeatherDisplay:10.37,2013-04-15 10:50:00,
2013-04-15 06:55:00,60.8,60.8,29.93,ENE,70,5.8,5.8,100,0.00,OVC,,0.00,WeatherDisplay:10.37,2013-04-15 10:55:00,
2013-04-15 07:00:00,60.8,60.8,29.94,NNE,30,5.8,5.8,100,0.00,OVC,,0.00,WeatherDisplay:10.37,2013-04-15 11:00:00,
2013-04-15 07:05:00,60.8,60.8,29.94,NNE,30,5.8,5.8,100,0.00,OVC,,0.00,WeatherDisplay:10.37,2013-04-15 11:05:00,
2013-04-15 07:10:00,60.8,60.8,29.94,NNE,30,5.8,5.8,100,0.00,OVC,,0.00,WeatherDisplay:10.37,2013-04-15 11:10:00,
2013-04-15 07:16:00,60.8,60.8,29.94,NNE,30,5.8,5.8,100,0.00,OVC,,0.00,WeatherDisplay:10.37,2013-04-15 11:16:00,
2013-04-15 07:21:00,62.6,62.6,29.96,NNE,30,5.8,0.0,100,0.00,OVC,,0.00,WeatherDisplay:10.37,2013-04-15 11:21:00,
2013-04-15 07:26:00,62.6,62.6,29.96,NNE,30,0.0,0.0,100,0.00,OVC,,0.00,WeatherDisplay:10.37,2013-04-15 11:26:00,
2013-04-15 07:31:00,62.6,62.6,29.96,NNE,30,0.0,0.0,100,0.00,OVC,,0.00,WeatherDisplay:10.37,2013-04-15 11:31:00,
2013-04-15 07:36:00,62.6,62.6,29.96,NNE,30,0.0,0.0,100,0.00,OVC,,0.00,WeatherDisplay:10.37,2013-04-15 11:36:00,
2013-04-15 07:42:00,62.6,62.6,29.98,NW,320,4.6,4.6,100,0.00,OVC,,0.00,WeatherDisplay:10.37,2013-04-15 11:42:00,
2013-04-15 07:47:00,62.6,62.6,29.98,NW,320,4.6,4.6,100,0.00,OVC,,0.00,WeatherDisplay:10.37,2013-04-15 11:47:00,
2013-04-15 07:52:00,62.6,62.6,29.98,NW,320,4.6,4.6,100,0.00,OVC,,0.00,WeatherDisplay:10.37,2013-04-15 11:52:00,
2013-04-15 07:57:00,62.6,62.6,29.98,NW,320,4.6,4.6,100,0.00,OVC,,0.00,WeatherDisplay:10.37,2013-04-15 11:57:00,
2013-04-15 08:02:00,62.6,62.6,29.98,NW,310,4.6,4.6,100,0.00,OVC,,0.00,WeatherDisplay:10.37,2013-04-15 12:02:00,
2013-04-15 08:07:00,62.6,62.6,29.98,NW,310,4.6,4.6,100,0.00,OVC,,0.00,WeatherDisplay:10.37,2013-04-15 12:07:00,
2013-04-15 08:13:00,62.6,62.6,29.98,NW,310,4.6,4.6,100,0.00,OVC,,0.00,WeatherDisplay:10.37,2013-04-15 12:13:00,
2013-04-15 08:18:00,62.6,62.6,29.98,NW,310,4.6,4.6,100,0.00,OVC,,0.00,WeatherDisplay:10.37,2013-04-15 12:18:00,
2013-04-15 08:23:00,62.6,62.6,29.99,NW,310,0.0,0.0,100,0.00,OVC,,0.00,WeatherDisplay:10.37,2013-04-15 12:23:00,
2013-04-15 08:28:00,62.6,62.6,29.99,NW,310,0.0,0.0,100,0.00,OVC,,0.00,WeatherDisplay:10.37,2013-04-15 12:28:00,
2013-04-15 08:33:00,62.6,62.6,29.99,NW,310,0.0,0.0,100,0.00,OVC,,0.00,WeatherDisplay:10.37,2013-04-15 12:33:00,
2013-04-15 08:38:00,62.6,62.6,29.99,NW,310,0.0,0.0,100,0.00,OVC,,0.00,WeatherDisplay:10.37,2013-04-15 12:38:00,
2013-04-15 08:43:00,62.6,62.6,30.01,NW,310,0.0,0.0,100,0.00,OVC,,0.00,WeatherDisplay:10.37,2013-04-15 12:43:00,
2013-04-15 08:48:00,62.6,62.6,30.01,NW,310,0.0,0.0,100,0.00,OVC,,0.00,WeatherDisplay:10.37,2013-04-15 12:48:00,
2013-04-15 08:53:00,62.6,62.6,30.01,NW,310,0.0,0.0,100,0.00,OVC,,0.00,WeatherDisplay:10.37,2013-04-15 12:53:00,
2013-04-15 08:58:00,62.6,62.6,30.01,NW,310,0.0,0.0,100,0.00,OVC,,0.00,WeatherDisplay:10.37,2013-04-15 12:58:00,
2013-04-15 09:03:00,62.6,62.6,30.01,ENE,60,3.5,3.5,100,0.00,OVC,,0.00,WeatherDisplay:10.37,2013-04-15 13:03:00,
2013-04-15 09:08:00,62.6,62.6,30.01,ENE,60,3.5,3.5,100,0.00,OVC,,0.00,WeatherDisplay:10.37,2013-04-15 13:08:00,
2013-04-15 09:13:00,62.6,62.6,30.01,ENE,60,3.5,3.5,100,0.00,OVC,,0.00,WeatherDisplay:10.37,2013-04-15 13:13:00,
2013-04-15 09:18:00,62.6,62.6,30.01,ENE,60,3.5,3.5,100,0.00,OVC,,0.00,WeatherDisplay:10.37,2013-04-15 13:18:00,
2013-04-15 09:23:00,62.6,62.6,30.02,NE,40,5.8,5.8,100,0.00,OVC,,0.00,WeatherDisplay:10.37,2013-04-15 13:23:00,
2013-04-15 09:28:00,62.6,62.6,30.02,NE,40,5.8,5.8,100,0.00,OVC,,0.00,WeatherDisplay:10.37,2013-04-15 13:28:00,
2013-04-15 09:33:00,62.6,62.6,30.02,NE,40,5.8,5.8,100,0.00,OVC,,0.00,WeatherDisplay:10.37,2013-04-15 13:33:00,
2013-04-15 09:38:00,62.6,62.6,30.02,NE,40,5.8,5.8,100,0.00,OVC,,0.00,WeatherDisplay:10.37,2013-04-15 13:38:00,
2013-04-15 09:43:00,62.6,62.6,30.02,NE,50,9.2,9.2,100,0.00,OVC,,0.00,WeatherDisplay:10.37,2013-04-15 13:43:00,
2013-04-15 09:48:00,62.6,62.6,30.02,NE,50,9.2,9.2,100,0.00,OVC,,0.00,WeatherDisplay:10.37,2013-04-15 13:48:00,
2013-04-15 09:54:00,62.6,62.6,30.02,NE,50,9.2,9.2,100,0.00,OVC,,0.00,WeatherDisplay:10.37,2013-04-15 13:54:00,
2013-04-15 09:59:00,62.6,62.6,30.02,NE,50,9.2,9.2,100,0.00,OVC,,0.00,WeatherDisplay:10.37,2013-04-15 13:59:00,
2013-04-15 10:04:00,64.4,64.4,30.03,NE,50,8.1,8.1,100,0.00,OVC,,0.00,WeatherDisplay:10.37,2013-04-15 14:04:00,
2013-04-15 10:09:00,64.4,64.4,30.03,NE,50,8.1,8.1,100,0.00,OVC,,0.00,WeatherDisplay:10.37,2013-04-15 14:09:00,
2013-04-15 10:14:00,64.4,64.4,30.03,NE,50,8.1,8.1,100,0.00,OVC,,0.00,WeatherDisplay:10.37,2013-04-15 14:14:00,
2013-04-15 10:19:00,64.4,64.4,30.03,NE,50,8.1,8.1,100,0.00,OVC,,0.00,WeatherDisplay:10.37,2013-04-15 14:19:00,
2013-04-15 10:24:00,64.4,64.4,30.04,ENE,60,8.1,8.1,100,0.00,OVC,,0.00,WeatherDisplay:10.37,2013-04-15 14:24:00,
2013-04-15 10:29:00,64.4,64.4,30.04,ENE,60,8.1,8.1,100,0.00,OVC,,0.00,WeatherDisplay:10.37,2013-04-15 14:29:00,
2013-04-15 10:34:00,64.4,64.4,30.04,ENE,60,8.1,8.1,100,0.00,OVC,,0.00,WeatherDisplay:10.37,2013-04-15 14:34:00,
2013-04-15 10:39:00,64.4,64.4,30.04,ENE,60,8.0,8.0,100,0.00,OVC,,0.00,WeatherDisplay:10.37,2013-04-15 14:39:00,
2013-04-15 10:44:00,64.4,64.4,30.05,ENE,60,5.8,5.8,100,0.00,OVC,,0.00,WeatherDisplay:10.37,2013-04-15 14:44:00,
2013-04-15 10:49:00,64.4,64.4,30.05,ENE,60,5.8,5.8,100,0.00,OVC,,0.00,WeatherDisplay:10.37,2013-04-15 14:49:00,
2013-04-15 10:55:00,64.4,64.4,30.05,ENE,60,5.8,5.8,100,0.00,OVC,,0.00,WeatherDisplay:10.37,2013-04-15 14:55:00,
2013-04-15 11:00:00,64.4,64.4,30.05,ENE,60,5.8,5.8,100,0.00,OVC,,0.00,WeatherDisplay:10.37,2013-04-15 15:00:00,
2013-04-15 11:05:00,66.2,64.1,30.05,East,80,9.2,9.2,93,0.00,OVC,,0.00,WeatherDisplay:10.37,2013-04-15 15:05:00,
2013-04-15 11:10:00,66.2,64.1,30.05,East,80,9.2,9.2,93,0.00,OVC,,0.00,WeatherDisplay:10.37,2013-04-15 15:10:00,
2013-04-15 11:15:00,66.2,64.1,30.05,East,80,9.2,9.2,93,0.00,OVC,,0.00,WeatherDisplay:10.37,2013-04-15 15:15:00,
2013-04-15 11:20:00,66.2,64.1,30.05,East,80,9.2,9.2,93,0.00,OVC,,0.00,WeatherDisplay:10.37,2013-04-15 15:20:00,
2013-04-15 11:26:00,68.0,64.3,30.06,East,80,8.1,8.1,88,0.00,OVC,,0.00,WeatherDisplay:10.37,2013-04-15 15:26:00,
2013-04-15 11:31:00,68.0,64.3,30.06,East,80,8.1,8.1,88,0.00,OVC,,0.00,WeatherDisplay:10.37,2013-04-15 15:31:00,
2013-04-15 11:37:00,68.0,64.3,30.06,East,80,8.1,8.1,88,0.00,OVC,,0.00,WeatherDisplay:10.37,2013-04-15 15:37:00,
2013-04-15 11:42:00,68.0,64.3,30.06,East,90,18.4,18.4,88,0.00,OVC,,0.00,WeatherDisplay:10.37,2013-04-15 15:42:00,
2013-04-15 11:47:00,68.0,64.3,30.06,East,90,18.4,18.4,88,0.00,OVC,,0.00,WeatherDisplay:10.37,2013-04-15 15:47:00,
2013-04-15 11:52:00,68.0,64.3,30.06,East,90,18.4,18.4,88,0.00,OVC,,0.00,WeatherDisplay:10.37,2013-04-15 15:52:00,
2013-04-15 11:57:00,68.0,64.3,30.06,East,90,18.4,18.4,88,0.00,OVC,,0.00,WeatherDisplay:10.37,2013-04-15 15:57:00,
2013-04-15 12:02:00,68.0,64.3,30.06,East,90,18.4,18.4,88,0.00,OVC,,0.00,WeatherDisplay:10.37,2013-04-15 16:02:00,
2013-04-15 12:07:00,68.0,64.3,30.06,East,90,18.4,18.4,88,0.00,OVC,,0.00,WeatherDisplay:10.37,2013-04-15 16:07:00,
2013-04-15 12:12:00,69.8,62.3,30.06,ESE,110,10.4,10.4,77,0.00,OVC,,0.00,WeatherDisplay:10.37,2013-04-15 16:12:00,
2013-04-15 12:18:00,69.8,62.3,30.06,ESE,110,10.4,10.4,77,0.00,OVC,,0.00,WeatherDisplay:10.37,2013-04-15 16:18:00,
2013-04-15 12:23:00,69.8,62.3,30.07,SE,130,10.4,10.4,77,0.00,OVC,,0.00,WeatherDisplay:10.37,2013-04-15 16:23:00,
2013-04-15 12:28:00,69.8,62.3,30.07,SE,130,9.2,9.2,77,0.00,OVC,,0.00,WeatherDisplay:10.37,2013-04-15 16:28:00,
2013-04-15 12:33:00,69.8,62.3,30.07,SE,130,9.2,9.2,77,0.00,OVC,,0.00,WeatherDisplay:10.37,2013-04-15 16:33:00,
2013-04-15 12:38:00,69.8,62.3,30.07,SE,130,9.2,9.2,77,0.00,OVC,,0.00,WeatherDisplay:10.37,2013-04-15 16:38:00,
2013-04-15 12:43:00,68.0,62.3,30.08,ESE,120,9.2,9.2,82,0.00,OVC,,0.00,WeatherDisplay:10.37,2013-04-15 16:43:00,
2013-04-15 12:48:00,68.0,62.3,30.08,ESE,120,9.2,9.2,82,0.00,OVC,,0.00,WeatherDisplay:10.37,2013-04-15 16:48:00,
2013-04-15 12:53:00,68.0,62.3,30.08,ESE,120,9.2,9.2,82,0.00,OVC,,0.00,WeatherDisplay:10.37,2013-04-15 16:53:00,
2013-04-15 12:58:00,68.0,62.3,30.08,ESE,120,9.2,9.2,82,0.00,OVC,,0.00,WeatherDisplay:10.37,2013-04-15 16:58:00,
2013-04-15 13:03:00,69.8,62.3,30.08,East,80,8.1,8.1,77,0.00,OVC,,0.00,WeatherDisplay:10.37,2013-04-15 17:03:00,
2013-04-15 13:08:00,69.8,62.3,30.08,East,80,8.1,8.1,77,0.00,OVC,,0.00,WeatherDisplay:10.37,2013-04-15 17:08:00,
2013-04-15 13:14:00,69.8,62.3,30.08,East,80,8.1,8.1,77,0.00,OVC,,0.00,WeatherDisplay:10.37,2013-04-15 17:14:00,
2013-04-15 13:19:00,69.8,62.3,30.08,East,80,8.1,8.1,77,0.00,OVC,,0.00,WeatherDisplay:10.37,2013-04-15 17:19:00,
2013-04-15 13:21:00,69.8,62.3,30.08,East,80,8.1,8.1,77,0.00,OVC,,0.00,WeatherDisplay:10.37,2013-04-15 17:21:00,
2013-04-15 13:22:00,69.8,62.3,30.08,East,80,8.1,8.1,77,0.00,OVC,,0.00,WeatherDisplay:10.37,2013-04-15 17:22:00,
2013-04-15 13:25:00,69.8,62.3,30.08,East,80,8.1,8.1,77,0.00,OVC,,0.00,WeatherDisplay:10.37,2013-04-15 17:25:00,
2013-04-15 13:30:00,69.8,62.3,30.08,East,80,8.1,8.1,77,0.00,OVC,,0.00,WeatherDisplay:10.37,2013-04-15 17:30:00,
2013-04-15 13:35:00,69.8,62.3,30.08,East,80,8.1,8.1,77,0.00,OVC,,0.00,WeatherDisplay:10.37,2013-04-15 17:35:00,
2013-04-15 13:40:00,69.8,62.3,30.08,East,80,8.1,8.1,77,0.00,OVC,,0.00,WeatherDisplay:10.37,2013-04-15 17:40:00,
2013-04-15 13:45:00,71.6,62.5,30.08,East,100,8.1,8.1,73,0.00,OVC,,0.00,WeatherDisplay:10.37,2013-04-15 17:45:00,
2013-04-15 13:50:00,71.6,62.5,30.08,East,100,8.1,8.1,73,0.00,OVC,,0.00,WeatherDisplay:10.37,2013-04-15 17:50:00,
2013-04-15 13:55:00,71.6,62.5,30.08,East,100,8.1,8.1,73,0.00,OVC,,0.00,WeatherDisplay:10.37,2013-04-15 17:55:00,
2013-04-15 14:00:00,71.6,62.5,30.08,East,100,8.1,8.1,73,0.00,OVC,,0.00,WeatherDisplay:10.37,2013-04-15 18:00:00,
2013-04-15 14:05:00,71.6,62.5,30.08,East,100,8.1,8.1,73,0.00,OVC,,0.00,WeatherDisplay:10.37,2013-04-15 18:05:00,
2013-04-15 14:10:00,71.6,62.5,30.08,East,100,8.1,8.1,73,0.00,OVC,,0.00,WeatherDisplay:10.37,2013-04-15 18:10:00,
2013-04-15 14:15:00,71.6,62.5,30.08,East,100,8.1,8.1,73,0.00,OVC,,0.00,WeatherDisplay:10.37,2013-04-15 18:15:00,
2013-04-15 14:20:00,71.6,62.5,30.08,East,100,8.1,8.1,73,0.00,OVC,,0.00,WeatherDisplay:10.37,2013-04-15 18:20:00,
2013-04-15 14:25:00,71.6,62.5,30.08,ENE,70,8.1,8.1,73,0.00,BKN,,0.00,WeatherDisplay:10.37,2013-04-15 18:25:00,
2013-04-15 14:29:00,71.6,62.5,30.08,ENE,70,8.1,8.1,73,0.00,BKN,,0.00,WeatherDisplay:10.37,2013-04-15 18:29:00,
2013-04-15 14:34:00,71.6,62.5,30.08,ENE,70,8.1,8.1,73,0.00,BKN,,0.00,WeatherDisplay:10.37,2013-04-15 18:34:00,
2013-04-15 14:39:00,71.6,62.5,30.08,ENE,70,8.1,8.1,73,0.00,BKN,,0.00,WeatherDisplay:10.37,2013-04-15 18:39:00,
2013-04-15 14:44:00,71.6,62.5,30.08,ENE,70,8.1,8.1,73,0.00,BKN,,0.00,WeatherDisplay:10.37,2013-04-15 18:44:00,
2013-04-15 14:49:00,71.6,62.5,30.08,ENE,70,8.1,8.1,73,0.00,BKN,,0.00,WeatherDisplay:10.37,2013-04-15 18:49:00,
2013-04-15 14:54:00,71.6,62.5,30.08,ENE,70,8.1,8.1,73,0.00,BKN,,0.00,WeatherDisplay:10.37,2013-04-15 18:54:00,
2013-04-15 14:59:00,71.6,62.5,30.08,ENE,70,8.0,8.0,73,0.00,BKN,,0.00,WeatherDisplay:10.37,2013-04-15 18:59:00,
2013-04-15 15:04:00,71.6,62.5,30.08,ENE,70,8.1,8.1,73,0.00,BKN,,0.00,WeatherDisplay:10.37,2013-04-15 19:04:00,
2013-04-15 15:09:00,71.6,62.5,30.08,ENE,70,8.1,8.1,73,0.00,BKN,,0.00,WeatherDisplay:10.37,2013-04-15 19:09:00,
2013-04-15 15:14:00,69.8,62.3,30.09,ESE,110,10.4,10.4,77,0.00,OVC,,0.00,WeatherDisplay:10.37,2013-04-15 19:14:00,
2013-04-15 15:19:00,69.8,62.3,30.09,ESE,110,10.4,10.4,77,0.00,OVC,,0.00,WeatherDisplay:10.37,2013-04-15 19:19:00,
2013-04-15 15:24:00,71.6,60.5,30.09,East,80,10.4,10.4,68,0.00,OVC,,0.00,WeatherDisplay:10.37,2013-04-15 19:24:00,
2013-04-15 15:29:00,71.6,60.5,30.09,East,80,10.4,10.4,68,0.00,OVC,,0.00,WeatherDisplay:10.37,2013-04-15 19:29:00,
2013-04-15 15:35:00,71.6,60.5,30.09,East,80,10.4,10.4,68,0.00,OVC,,0.00,WeatherDisplay:10.37,2013-04-15 19:35:00,
2013-04-15 15:40:00,71.6,60.5,30.09,East,80,10.4,10.4,68,0.00,OVC,,0.00,WeatherDisplay:10.37,2013-04-15 19:40:00,
2013-04-15 15:46:00,71.6,62.5,30.09,East,90,9.2,9.2,73,0.00,OVC,,0.00,WeatherDisplay:10.37,2013-04-15 19:46:00,
2013-04-15 15:51:00,71.6,62.5,30.09,East,90,9.2,9.2,73,0.00,OVC,,0.00,WeatherDisplay:10.37,2013-04-15 19:51:00,
2013-04-15 15:58:00,71.6,62.5,30.09,East,90,9.2,9.2,73,0.00,OVC,,0.00,WeatherDisplay:10.37,2013-04-15 19:58:00,
2013-04-15 15:59:00,71.6,62.5,30.09,East,90,9.2,9.2,73,0.00,OVC,,0.00,WeatherDisplay:10.37,2013-04-15 19:59:00,
2013-04-15 16:00:00,71.6,62.5,30.09,East,90,9.2,9.2,73,0.00,OVC,,0.00,WeatherDisplay:10.37,2013-04-15 20:00:00,
2013-04-15 16:01:00,71.6,62.5,30.09,East,90,9.2,9.2,73,0.00,OVC,,0.00,WeatherDisplay:10.37,2013-04-15 20:01:00,
2013-04-15 16:02:00,71.6,62.5,30.09,East,90,9.2,9.2,73,0.00,OVC,,0.00,WeatherDisplay:10.37,2013-04-15 20:02:00,
2013-04-15 16:03:00,71.6,62.5,30.09,East,90,9.2,9.2,73,0.00,OVC,,0.00,WeatherDisplay:10.37,2013-04-15 20:03:00,
2013-04-15 16:04:00,71.6,62.5,30.09,East,90,9.2,9.2,73,0.00,OVC,,0.00,WeatherDisplay:10.37,2013-04-15 20:04:00,
2013-04-15 16:09:00,71.6,62.5,30.09,East,90,9.2,9.2,73,0.00,OVC,,0.00,WeatherDisplay:10.37,2013-04-15 20:09:00,
2013-04-15 16:14:00,73.4,62.2,30.08,ENE,70,5.8,5.8,68,0.00,BKN,,0.00,WeatherDisplay:10.37,2013-04-15 20:14:00,
2013-04-15 16:19:00,73.4,62.2,30.08,ENE,70,5.8,5.8,68,0.00,BKN,,0.00,WeatherDisplay:10.37,2013-04-15 20:19:00,
2013-04-15 16:24:00,71.6,62.5,30.08,ENE,70,9.2,9.2,73,0.00,BKN,,0.00,WeatherDisplay:10.37,2013-04-15 20:24:00,
2013-04-15 16:29:00,71.6,62.5,30.08,ENE,70,9.2,9.2,73,0.00,BKN,,0.00,WeatherDisplay:10.37,2013-04-15 20:29:00,
2013-04-15 16:34:00,71.6,62.5,30.08,ENE,70,9.2,9.2,73,0.00,BKN,,0.00,WeatherDisplay:10.37,2013-04-15 20:34:00,
2013-04-15 16:39:00,71.6,62.5,30.08,ENE,70,9.2,9.2,73,0.00,BKN,,0.00,WeatherDisplay:10.37,2013-04-15 20:39:00,
2013-04-15 16:44:00,71.6,62.5,30.08,ENE,70,9.2,9.2,73,0.00,BKN,,0.00,WeatherDisplay:10.37,2013-04-15 20:44:00,
2013-04-15 16:49:00,71.6,62.5,30.08,ENE,70,9.2,9.2,73,0.00,BKN,,0.00,WeatherDisplay:10.37,2013-04-15 20:49:00,
2013-04-15 16:54:00,71.6,62.5,30.08,ENE,70,9.2,9.2,73,0.00,BKN,,0.00,WeatherDisplay:10.37,2013-04-15 20:54:00,
2013-04-15 16:59:00,71.6,62.5,30.08,ENE,70,9.2,9.2,73,0.00,BKN,,0.00,WeatherDisplay:10.37,2013-04-15 20:59:00,
2013-04-15 17:04:00,71.6,62.5,30.09,East,90,9.2,9.2,73,0.00,OVC,,0.00,WeatherDisplay:10.37,2013-04-15 21:04:00,
2013-04-15 17:09:00,71.6,62.5,30.09,East,90,9.2,9.2,73,0.00,OVC,,0.00,WeatherDisplay:10.37,2013-04-15 21:09:00,
2013-04-15 17:14:00,71.6,62.5,30.09,East,90,9.2,9.2,73,0.00,OVC,,0.00,WeatherDisplay:10.37,2013-04-15 21:14:00,
2013-04-15 17:19:00,71.6,62.5,30.09,East,90,9.2,9.2,73,0.00,OVC,,0.00,WeatherDisplay:10.37,2013-04-15 21:19:00,
2013-04-15 17:24:00,69.8,62.3,30.10,East,100,8.1,8.1,77,0.00,OVC,,0.00,WeatherDisplay:10.37,2013-04-15 21:24:00,
2013-04-15 17:29:00,69.8,62.3,30.10,East,100,8.1,8.1,77,0.00,OVC,,0.00,WeatherDisplay:10.37,2013-04-15 21:29:00,
2013-04-15 17:34:00,69.8,62.3,30.10,East,100,8.1,8.1,77,0.00,OVC,,0.00,WeatherDisplay:10.37,2013-04-15 21:34:00,
2013-04-15 17:39:00,69.8,62.3,30.10,East,100,8.1,8.1,77,0.00,OVC,,0.00,WeatherDisplay:10.37,2013-04-15 21:39:00,
2013-04-15 17:44:00,69.8,62.3,30.10,East,80,8.1,8.1,77,0.00,BKN,,0.00,WeatherDisplay:10.37,2013-04-15 21:44:00,
2013-04-15 17:49:00,69.8,62.3,30.10,East,80,8.1,8.1,77,0.00,BKN,,0.00,WeatherDisplay:10.37,2013-04-15 21:49:00,
2013-04-15 17:54:00,69.8,62.3,30.10,East,80,8.1,8.1,77,0.00,BKN,,0.00,WeatherDisplay:10.37,2013-04-15 21:54:00,
2013-04-15 17:59:00,69.8,62.3,30.10,East,80,8.1,8.1,77,0.00,BKN,,0.00,WeatherDisplay:10.37,2013-04-15 21:59:00,
2013-04-15 18:04:00,69.8,62.3,30.10,East,80,8.1,8.1,77,0.00,BKN,,0.00,WeatherDisplay:10.37,2013-04-15 22:04:00,
2013-04-15 18:09:00,69.8,62.3,30.10,East,80,8.1,8.1,77,0.00,BKN,,0.00,WeatherDisplay:10.37,2013-04-15 22:09:00,
2013-04-15 18:14:00,69.8,62.3,30.11,East,90,5.8,5.8,77,0.00,BKN,,0.00,WeatherDisplay:10.37,2013-04-15 22:14:00,
2013-04-15 18:19:00,69.8,62.3,30.11,East,90,5.8,5.8,77,0.00,BKN,,0.00,WeatherDisplay:10.37,2013-04-15 22:19:00,
2013-04-15 18:24:00,69.8,62.3,30.11,East,90,8.1,8.1,77,0.00,OVC,,0.00,WeatherDisplay:10.37,2013-04-15 22:24:00,
2013-04-15 18:29:00,69.8,62.3,30.11,East,90,8.1,8.1,77,0.00,OVC,,0.00,WeatherDisplay:10.37,2013-04-15 22:29:00,
2013-04-15 18:34:00,69.8,62.3,30.11,East,90,8.1,8.1,77,0.00,OVC,,0.00,WeatherDisplay:10.37,2013-04-15 22:34:00,
2013-04-15 18:39:00,69.8,62.3,30.11,East,90,8.1,8.1,77,0.00,OVC,,0.00,WeatherDisplay:10.37,2013-04-15 22:39:00,
2013-04-15 18:44:00,69.8,62.3,30.11,East,90,8.1,8.1,77,0.00,OVC,,0.00,WeatherDisplay:10.37,2013-04-15 22:44:00,
2013-04-15 18:49:00,69.8,62.3,30.11,East,90,8.1,8.1,77,0.00,OVC,,0.00,WeatherDisplay:10.37,2013-04-15 22:49:00,
2013-04-15 18:54:00,69.8,62.3,30.11,ENE,60,8.1,8.1,77,0.00,OVC,,0.00,WeatherDisplay:10.37,2013-04-15 22:54:00,
2013-04-15 18:59:00,69.8,62.3,30.11,ENE,60,8.1,8.1,77,0.00,OVC,,0.00,WeatherDisplay:10.37,2013-04-15 22:59:00,
2013-04-15 19:04:00,68.0,62.3,30.11,East,80,5.8,5.8,82,0.00,OVC,,0.00,WeatherDisplay:10.37,2013-04-15 23:04:00,
2013-04-15 19:09:00,68.0,62.3,30.11,East,80,5.8,5.8,82,0.00,OVC,,0.00,WeatherDisplay:10.37,2013-04-15 23:09:00,
2013-04-15 19:14:00,68.0,62.3,30.11,East,80,5.8,5.8,82,0.00,OVC,,0.00,WeatherDisplay:10.37,2013-04-15 23:14:00,
2013-04-15 19:19:00,68.0,62.3,30.11,East,80,5.8,5.8,82,0.00,OVC,,0.00,WeatherDisplay:10.37,2013-04-15 23:19:00,
2013-04-15 19:24:00,68.0,62.3,30.11,East,90,5.8,5.8,82,0.00,OVC,,0.00,WeatherDisplay:10.37,2013-04-15 23:24:00,
2013-04-15 19:29:00,68.0,62.3,30.11,East,90,5.8,5.8,82,0.00,OVC,,0.00,WeatherDisplay:10.37,2013-04-15 23:29:00,
2013-04-15 19:34:00,68.0,62.3,30.11,East,90,5.8,5.8,82,0.00,OVC,,0.00,WeatherDisplay:10.37,2013-04-15 23:34:00,
2013-04-15 19:39:00,68.0,62.3,30.11,East,90,5.8,5.8,82,0.00,OVC,,0.00,WeatherDisplay:10.37,2013-04-15 23:39:00,
2013-04-15 19:44:00,68.0,62.3,30.12,East,90,4.6,4.6,82,0.00,OVC,,0.00,WeatherDisplay:10.37,2013-04-15 23:44:00,
2013-04-15 19:49:00,68.0,62.3,30.12,East,90,4.6,4.6,82,0.00,OVC,,0.00,WeatherDisplay:10.37,2013-04-15 23:49:00,
2013-04-15 19:54:00,68.0,62.3,30.12,East,90,4.6,4.6,82,0.00,OVC,,0.00,WeatherDisplay:10.37,2013-04-15 23:54:00,
2013-04-15 19:59:00,68.0,62.3,30.12,East,90,4.6,4.6,82,0.00,OVC,,0.00,WeatherDisplay:10.37,2013-04-15 23:59:00,
2013-04-15 20:04:00,68.0,62.3,30.12,ENE,60,3.5,3.5,82,0.00,OVC,,0.00,WeatherDisplay:10.37,2013-04-16 00:04:00,
2013-04-15 20:09:00,68.0,62.3,30.12,ENE,60,3.5,3.5,82,0.00,OVC,,0.00,WeatherDisplay:10.37,2013-04-16 00:09:00,
2013-04-15 20:14:00,68.0,62.3,30.12,ENE,60,3.5,3.5,82,0.00,OVC,,0.00,WeatherDisplay:10.37,2013-04-16 00:14:00,
2013-04-15 20:19:00,68.0,62.3,30.12,ENE,60,3.5,3.5,82,0.00,OVC,,0.00,WeatherDisplay:10.37,2013-04-16 00:19:00,
2013-04-15 20:24:00,66.2,62.5,30.13,NE,50,4.6,4.6,88,0.00,OVC,,0.00,WeatherDisplay:10.37,2013-04-16 00:24:00,
2013-04-15 20:29:00,66.2,62.5,30.13,NE,50,4.6,4.6,88,0.00,OVC,,0.00,WeatherDisplay:10.37,2013-04-16 00:29:00,
2013-04-15 20:34:00,66.2,62.5,30.13,NE,50,4.6,4.6,88,0.00,OVC,,0.00,WeatherDisplay:10.37,2013-04-16 00:34:00,
2013-04-15 20:39:00,66.2,62.5,30.13,NE,50,4.6,4.6,88,0.00,OVC,,0.00,WeatherDisplay:10.37,2013-04-16 00:39:00,
2013-04-15 20:44:00,66.2,62.5,30.13,NE,40,3.5,3.5,88,0.00,OVC,,0.00,WeatherDisplay:10.37,2013-04-16 00:44:00,
2013-04-15 20:49:00,66.2,62.5,30.13,NE,40,3.5,3.5,88,0.00,OVC,,0.00,WeatherDisplay:10.37,2013-04-16 00:49:00,
2013-04-15 20:54:00,66.2,62.5,30.13,NE,40,3.5,3.5,88,0.00,OVC,,0.00,WeatherDisplay:10.37,2013-04-16 00:54:00,
2013-04-15 20:59:00,66.2,62.5,30.13,NE,40,3.5,3.5,88,0.00,OVC,,0.00,WeatherDisplay:10.37,2013-04-16 00:59:00,
2013-04-15 21:04:00,66.2,62.5,30.13,NE,40,3.5,3.5,88,0.00,OVC,,0.00,WeatherDisplay:10.37,2013-04-16 01:04:00,
2013-04-15 21:09:00,66.2,62.5,30.13,NE,40,3.5,3.5,88,0.00,OVC,,0.00,WeatherDisplay:10.37,2013-04-16 01:09:00,
2013-04-15 21:14:00,64.4,62.3,30.14,NE,40,3.5,3.5,93,0.00,OVC,,0.00,WeatherDisplay:10.37,2013-04-16 01:14:00,
2013-04-15 21:19:00,64.4,62.3,30.14,NE,40,3.5,3.5,93,0.00,OVC,,0.00,WeatherDisplay:10.37,2013-04-16 01:19:00,
2013-04-15 21:24:00,64.4,62.3,30.15,ENE,60,5.8,5.8,93,0.00,OVC,,0.00,WeatherDisplay:10.37,2013-04-16 01:24:00,
2013-04-15 21:29:00,64.4,62.3,30.15,ENE,60,5.8,5.8,93,0.00,OVC,,0.00,WeatherDisplay:10.37,2013-04-16 01:29:00,
2013-04-15 21:34:00,64.4,62.3,30.15,ENE,60,5.8,5.8,93,0.00,OVC,,0.00,WeatherDisplay:10.37,2013-04-16 01:34:00,
2013-04-15 21:39:00,64.4,62.3,30.15,ENE,60,5.8,5.8,93,0.00,OVC,,0.00,WeatherDisplay:10.37,2013-04-16 01:39:00,
2013-04-15 21:44:00,64.4,62.3,30.16,NE,40,6.9,6.9,93,0.00,OVC,,0.00,WeatherDisplay:10.37,2013-04-16 01:44:00,
2013-04-15 21:49:00,64.4,62.3,30.16,NE,40,6.9,6.9,93,0.00,OVC,,0.00,WeatherDisplay:10.37,2013-04-16 01:49:00,
2013-04-15 21:54:00,64.4,62.3,30.16,NE,40,6.9,6.9,93,0.00,OVC,,0.00,WeatherDisplay:10.37,2013-04-16 01:54:00,
2013-04-15 21:59:00,64.4,62.3,30.16,NE,40,6.9,6.9,93,0.00,OVC,,0.00,WeatherDisplay:10.37,2013-04-16 01:59:00,
2013-04-15 22:04:00,64.4,62.3,30.17,NE,40,4.6,4.6,93,0.00,OVC,,0.00,WeatherDisplay:10.37,2013-04-16 02:04:00,
2013-04-15 22:09:00,64.4,62.3,30.17,NE,40,4.6,4.6,93,0.00,OVC,,0.00,WeatherDisplay:10.37,2013-04-16 02:09:00,
2013-04-15 22:14:00,64.4,62.3,30.17,NE,40,4.6,4.6,93,0.00,OVC,,0.00,WeatherDisplay:10.37,2013-04-16 02:14:00,
2013-04-15 22:19:00,64.4,62.3,30.17,NE,40,4.6,4.6,93,0.00,OVC,,0.00,WeatherDisplay:10.37,2013-04-16 02:19:00,
2013-04-15 22:24:00,64.4,62.3,30.17,NE,40,4.6,4.6,93,0.00,OVC,,0.00,WeatherDisplay:10.37,2013-04-16 02:24:00,
2013-04-15 22:29:00,64.4,62.3,30.17,NE,40,4.6,4.6,93,0.00,OVC,,0.00,WeatherDisplay:10.37,2013-04-16 02:29:00,
2013-04-15 22:34:00,64.4,62.3,30.18,NNE,30,4.6,4.6,93,0.00,OVC,,0.00,WeatherDisplay:10.37,2013-04-16 02:34:00,
2013-04-15 22:39:00,64.4,62.3,30.18,NNE,30,4.6,4.6,93,0.00,OVC,,0.00,WeatherDisplay:10.37,2013-04-16 02:39:00,
2013-04-15 22:44:00,64.4,62.3,30.18,NE,40,4.6,4.6,93,0.00,OVC,,0.00,WeatherDisplay:10.37,2013-04-16 02:44:00,
2013-04-15 22:49:00,64.4,62.3,30.18,NE,40,4.6,4.6,93,0.00,OVC,,0.00,WeatherDisplay:10.37,2013-04-16 02:49:00,
2013-04-15 22:54:00,64.4,62.3,30.18,NE,40,4.6,4.6,93,0.00,OVC,,0.00,WeatherDisplay:10.37,2013-04-16 02:54:00,
2013-04-15 22:59:00,64.4,62.3,30.18,NE,40,4.6,4.6,93,0.00,OVC,,0.00,WeatherDisplay:10.37,2013-04-16 02:59:00,
2013-04-15 23:04:00,64.4,62.3,30.18,NE,50,4.6,4.6,93,0.00,OVC,,0.00,WeatherDisplay:10.37,2013-04-16 03:04:00,
2013-04-15 23:09:00,64.4,62.3,30.18,NE,50,4.6,4.6,93,0.00,OVC,,0.00,WeatherDisplay:10.37,2013-04-16 03:09:00,
2013-04-15 23:14:00,64.4,62.3,30.18,NE,50,4.6,4.6,93,0.00,OVC,,0.00,WeatherDisplay:10.37,2013-04-16 03:14:00,
2013-04-15 23:19:00,64.4,62.3,30.18,NE,50,4.6,4.6,93,0.00,OVC,,0.00,WeatherDisplay:10.37,2013-04-16 03:19:00,
2013-04-15 23:24:00,64.4,62.3,30.18,NE,50,3.5,3.5,93,0.00,OVC,,0.00,WeatherDisplay:10.37,2013-04-16 03:24:00,
2013-04-15 23:29:00,64.4,62.3,30.18,NE,50,3.5,3.5,93,0.00,OVC,,0.00,WeatherDisplay:10.37,2013-04-16 03:29:00,
2013-04-15 23:34:00,64.4,62.3,30.18,NE,50,3.5,3.5,93,0.00,OVC,,0.00,WeatherDisplay:10.37,2013-04-16 03:34:00,
2013-04-15 23:39:00,64.4,62.3,30.18,NE,50,3.5,3.5,93,0.00,OVC,,0.00,WeatherDisplay:10.37,2013-04-16 03:39:00,
2013-04-15 23:44:00,64.4,62.3,30.18,ENE,60,3.5,3.5,93,0.00,OVC,,0.00,WeatherDisplay:10.37,2013-04-16 03:44:00,
2013-04-15 23:49:00,64.4,62.3,30.18,ENE,60,3.5,3.5,93,0.00,OVC,,0.00,WeatherDisplay:10.37,2013-04-16 03:49:00,
2013-04-15 23:54:00,64.4,62.3,30.18,ENE,60,3.5,3.5,93,0.00,OVC,,0.00,WeatherDisplay:10.37,2013-04-16 03:54:00,
2013-04-15 23:59:00,64.4,62.3,30.18,ENE,60,3.5,3.5,93,0.00,OVC,,0.00,WeatherDisplay:10.37,2013-04-16 03:59:00,